Location: Ash Observatory
(39.7321°N, 75.2004°W)
Time: 23:33:05
(UTC-04:00)

ISS - Pass Details

Date: 28 May 2019
Orbit: 408 x 418 km, 51.6° (Epoch: 25 June)

Event Time Altitude Azimuth Distance (km) Brightness Sun altitude
Rises 22:43:23 0° 314° (NW) 2,359 1.5 -21.1°
Reaches altitude 10° 22:45:51 10° 332° (NNW) 1,496 0.2 -21.4°
Maximum altitude 22:48:26 20° 22° (NNE) 1,026 -1.4 -21.6°
Enters shadow 22:49:28 18° 48° (NE) 1,114 -1.5 -21.7°
